Paso Robles, CA

6:45 AM PST on November 19, 2017 (GMT -0800)
Paso Robles Municipal

Weather History for KPRB - May, 2014

Change the Weather History Date:

Tuesday, May 20, 2014

  Actual Average Record
Temperature  
Mean Temperature 60 °F 64 °F  
Max Temperature 71 °F 82 °F 103 °F (2000)
Min Temperature 49 °F 47 °F 34 °F (1974)
Degree Days  
Heating Degree Days 5 3  
Month to date heating degree days 27 82  
Since 1 July heating degree days 2102 2794  
Cooling Degree Days 0 2  
Month to date cooling degree days 81 30  
Year to date cooling degree days 99 39  
Growing Degree Days 10 (Base 50)    
Moisture  
Dew Point 44 °F    
Average Humidity 53    
Maximum Humidity 74    
Minimum Humidity 31    
Precipitation  
Precipitation 0.00 in 0.01 in 0.13 in (2002)
Month to date precipitation 0.00 0.21  
Year to date precipitation 4.46 8.72  
Since 1 July precipitation 4.92  
Sea Level Pressure  
Sea Level Pressure 29.98 in    
Wind  
Wind Speed 9 mph (WSW)    
Max Wind Speed 23 mph    
Max Gust Speed 30 mph    
Visibility 10 miles    
Events      
T = Trace of Precipitation, MM = Missing Value Source: NWS Daily Summary

Daily Weather History Graph

Daily Weather History Graph

Search for Another Location

Airport or City:

Trip Planner

Search our weather history database for the weather conditions in past years. The results will help you decide how hot, cold, wet, or windy it might be!

Date:

Astronomy

May. 20, 2014 Rise Set
Actual Time 5:53 AM PDT 8:04 PM PDT
Civil Twilight 5:25 AM PDT 8:33 PM PDT
Nautical Twilight 4:49 AM PDT 9:08 PM PDT
Astronomical Twilight 4:11 AM PDT 9:46 PM PDT
Moon 12:43 AM PDT (5/20) 12:01 PM PDT (5/20)
Length of Visible Light 15h 08m
Length of Day
14h 10m
Waning Gibbous, 59% of the Moon is Illuminated
May 20
Waning Gibbous
May 21
Last Quarter
May 28
New
Jun 5
First Quarter
Jun 12
Full

Hourly Weather History & Observations

Time (PDT) Temp. Dew Point Humidity Pressure Visibility Wind Dir Wind Speed Gust Speed Precip Events Conditions
12:53 AM 54.0 °F 44.1 °F 69% 29.96 in 10.0 mi West 5.8 mph - N/A   Clear
2:53 AM 50.0 °F 43.0 °F 77% 29.95 in 10.0 mi South 4.6 mph - N/A   Clear
3:53 AM 50.0 °F 43.0 °F 77% 29.95 in 10.0 mi SSW 5.8 mph - N/A   Mostly Cloudy
4:39 AM 50.0 °F 43.0 °F 77% 29.96 in 10.0 mi Calm Calm - N/A   Overcast
5:53 AM 50.0 °F 43.0 °F 77% 29.97 in 10.0 mi Calm Calm - N/A   Overcast
6:10 AM 51.1 °F 43.0 °F 74% 29.98 in 7.0 mi SE 4.6 mph - N/A   Overcast
6:35 AM 51.1 °F 43.0 °F 74% 29.99 in 10.0 mi SSE 3.5 mph - N/A   Mostly Cloudy
6:42 AM 51.1 °F 43.0 °F 74% 29.99 in 10.0 mi Calm Calm - N/A   Mostly Cloudy
6:53 AM 52.0 °F 43.0 °F 71% 29.98 in 4.0 mi East 3.5 mph - N/A   Haze
7:15 AM 53.1 °F 43.0 °F 69% 29.99 in 10.0 mi South 3.5 mph - N/A   Overcast
7:27 AM 53.1 °F 44.1 °F 71% 29.99 in 10.0 mi Calm Calm - N/A   Overcast
7:41 AM 54.0 °F 44.1 °F 69% 30.00 in 10.0 mi SW 3.5 mph - N/A   Overcast
7:53 AM 54.0 °F 45.0 °F 72% 30.00 in 10.0 mi WSW 4.6 mph - N/A   Overcast
8:16 AM 55.9 °F 46.0 °F 69% 30.01 in 10.0 mi West 5.8 mph - N/A   Overcast
8:53 AM 57.0 °F 45.0 °F 64% 30.01 in 10.0 mi NW 8.1 mph - N/A   Overcast
9:53 AM 60.1 °F 44.1 °F 55% 30.01 in 10.0 mi NW 6.9 mph - N/A   Overcast
10:53 AM 64.0 °F 42.1 °F 45% 30.00 in 10.0 mi North - - N/A   Scattered Clouds
11:53 AM 66.0 °F 39.0 °F 37% 29.99 in 10.0 mi WSW 10.4 mph - N/A   Clear
12:53 PM 69.1 °F 37.0 °F 31% 29.98 in 10.0 mi NW 10.4 mph 17.3 mph N/A   Scattered Clouds
1:53 PM 69.1 °F 42.1 °F 38% 29.97 in 10.0 mi SW 12.7 mph - N/A   Scattered Clouds
2:53 PM 70.0 °F 43.0 °F 38% 29.96 in 10.0 mi SW 13.8 mph - N/A   Partly Cloudy
3:53 PM 70.0 °F 43.0 °F 38% 29.94 in 10.0 mi South 19.6 mph - N/A   Mostly Cloudy
4:53 PM 66.9 °F 41.0 °F 39% 29.94 in 10.0 mi SSW 13.8 mph 24.2 mph N/A   Clear
5:53 PM 68.0 °F 43.0 °F 40% 29.93 in 10.0 mi SSW 18.4 mph - N/A   Mostly Cloudy
6:53 PM 64.9 °F 45.0 °F 48% 29.94 in 10.0 mi SSW 13.8 mph - N/A   Overcast
7:53 PM 63.0 °F 46.9 °F 56% 29.96 in 10.0 mi WSW 10.4 mph - N/A   Overcast
8:53 PM 62.1 °F 46.0 °F 56% 29.97 in 10.0 mi WNW 12.7 mph - N/A   Overcast
9:53 PM 60.1 °F 46.0 °F 60% 29.99 in 10.0 mi NW 11.5 mph - N/A   Mostly Cloudy
10:53 PM 57.9 °F 46.0 °F 65% 29.99 in 10.0 mi NW 11.5 mph - N/A   Clear
11:53 PM 57.0 °F 46.9 °F 69% 29.99 in 10.0 mi NNW 9.2 mph - N/A   Scattered Clouds